Howell, MI

1:34 AM EST on December 10, 2016 (GMT -0500)
Livingston County

Weather History for KOZW - March, 2012

Change the Weather History Date:

Thursday, March 8, 2012

  Actual Average Record
Temperature  
Mean Temperature 37 °F -  
Max Temperature 44 °F 37 °F 69 °F (2016)
Min Temperature 30 °F 20 °F 8 °F (2007)
Degree Days  
Heating Degree Days 28    
Moisture  
Dew Point 30 °F    
Average Humidity 74    
Maximum Humidity 93    
Minimum Humidity 56    
Precipitation  
Precipitation 0.00 in - - ()
Sea Level Pressure  
Sea Level Pressure 29.99 in    
Wind  
Wind Speed 14 mph (West)    
Max Wind Speed 22 mph    
Max Gust Speed 30 mph    
Visibility 9 miles    
Events      
Averages and records for this station are not official NWS values.
T = Trace of Precipitation, MM = Missing Value Source: NWS Daily Summary

Daily Weather History Graph

Daily Weather History Graph

Search for Another Location

Airport or City:

Trip Planner

Search our weather history database for the weather conditions in past years. The results will help you decide how hot, cold, wet, or windy it might be!

Date:

Astronomy

Mar. 08, 2012 Rise Set
Actual Time 6:59 AM EST 6:34 PM EST
Civil Twilight 6:30 AM EST 7:02 PM EST
Nautical Twilight 5:58 AM EST 7:35 PM EST
Astronomical Twilight 5:25 AM EST 8:08 PM EST
Moon 7:23 PM EST (3/8) 6:41 AM EST (3/8)
Length of Visible Light 12h 31m
Length of Day
11h 35m
Full, 100% of the Moon is Illuminated
Mar 8
Full
Mar 14
Last Quarter
Mar 22
New
Mar 30
First Quarter
Apr 6
Full

Hourly Weather History & Observations

Time (EST) Temp. Windchill Dew Point Humidity Pressure Visibility Wind Dir Wind Speed Gust Speed Precip Events Conditions
9:05 AM 44.6 °F 37.4 °F 41.0 °F 87% 29.82 in 10.0 mi West 16.1 mph - N/A   Overcast
9:45 AM 44.6 °F 38.4 °F 41.0 °F 87% 29.85 in 10.0 mi West 12.7 mph - N/A   Overcast
10:05 AM 44.6 °F 37.2 °F 39.2 °F 81% 29.87 in 7.0 mi WNW 17.3 mph 24.2 mph N/A   Overcast
10:25 AM 42.8 °F 34.8 °F 39.2 °F 87% 29.89 in 5.0 mi WNW 17.3 mph - N/A   Overcast
10:45 AM 42.8 °F 35.4 °F 39.2 °F 87% 29.88 in 4.0 mi West 15.0 mph 20.7 mph N/A   Overcast
11:05 AM 41.0 °F 34.7 °F 39.2 °F 93% 29.88 in 4.0 mi WNW 10.4 mph - N/A   Overcast
11:25 AM 41.0 °F 35.2 °F 37.4 °F 87% 29.88 in 5.0 mi WNW 9.2 mph 16.1 mph N/A   Overcast
11:45 AM 41.0 °F 35.2 °F 37.4 °F 87% 29.88 in 7.0 mi NW 9.2 mph - N/A   Overcast
12:25 PM 41.0 °F 33.5 °F 39.2 °F 93% 29.91 in 5.0 mi WNW 13.8 mph 17.3 mph N/A   Overcast
12:45 PM 41.0 °F 32.5 °F 37.4 °F 87% 29.91 in 7.0 mi West 17.3 mph 24.2 mph N/A   Overcast
1:05 PM 41.0 °F 33.5 °F 35.6 °F 81% 29.92 in 7.0 mi West 13.8 mph 20.7 mph N/A   Overcast
1:25 PM 39.2 °F 30.8 °F 35.6 °F 87% 29.93 in 5.0 mi West 15.0 mph 28.8 mph N/A   Overcast
1:45 PM 39.2 °F 30.5 °F 35.6 °F 87% 29.93 in 5.0 mi WNW 16.1 mph 21.9 mph N/A   Overcast
2:05 PM 41.0 °F 33.9 °F 33.8 °F 76% 29.93 in 7.0 mi West 12.7 mph 19.6 mph N/A   Overcast
2:25 PM 41.0 °F 31.4 °F 32.0 °F 70% 29.95 in 10.0 mi West 21.9 mph 29.9 mph N/A   Overcast
3:45 PM 41.0 °F 31.9 °F 32.0 °F 70% 29.96 in 10.0 mi West 19.6 mph 25.3 mph N/A   Overcast
4:25 PM 39.2 °F 30.5 °F 30.2 °F 70% 29.97 in 10.0 mi WNW 16.1 mph 25.3 mph N/A   Overcast
4:45 PM 39.2 °F 29.6 °F 26.6 °F 61% 29.98 in 10.0 mi West 19.6 mph 26.5 mph N/A   Mostly Cloudy
5:05 PM 39.2 °F 29.3 °F 24.8 °F 56% 30.00 in 10.0 mi West 20.7 mph 25.3 mph N/A   Overcast
5:25 PM 37.4 °F 27.2 °F 24.8 °F 60% 30.03 in 10.0 mi West 19.6 mph 29.9 mph N/A   Mostly Cloudy
5:45 PM 37.4 °F 27.5 °F 24.8 °F 60% 30.04 in 10.0 mi West 18.4 mph 27.6 mph N/A   Overcast
6:05 PM 37.4 °F 28.9 °F 24.8 °F 60% 30.04 in 10.0 mi West 13.8 mph 20.7 mph N/A   Overcast
6:25 PM 35.6 °F 24.8 °F 23.0 °F 60% 30.05 in 10.0 mi West 19.6 mph 26.5 mph N/A   Scattered Clouds
6:45 PM 35.6 °F 27.1 °F 23.0 °F 60% 30.07 in 10.0 mi West 12.7 mph 19.6 mph N/A   Clear
7:05 PM 35.6 °F 27.5 °F 21.2 °F 56% 30.08 in 10.0 mi WNW 11.5 mph 20.7 mph N/A   Clear
7:25 PM 33.8 °F 24.3 °F 21.2 °F 60% 30.09 in 10.0 mi West 13.8 mph 19.6 mph N/A   Clear
7:45 PM 33.8 °F 26.4 °F 23.0 °F 65% 30.09 in 10.0 mi West 9.2 mph - N/A   Clear
8:05 PM 32.0 °F 24.8 °F 23.0 °F 69% 30.10 in 10.0 mi West 8.1 mph - N/A   Clear
8:45 PM 32.0 °F 26.4 °F 23.0 °F 69% 30.09 in 10.0 mi West 5.8 mph - N/A   Clear
9:05 PM 30.2 °F 26.7 °F 23.0 °F 75% 30.09 in 10.0 mi WSW 3.5 mph - N/A   Clear
9:25 PM 30.2 °F 26.7 °F 23.0 °F 75% 30.08 in 10.0 mi WSW 3.5 mph - N/A   Clear
9:45 PM 30.2 °F 26.7 °F 23.0 °F 75% 30.09 in 10.0 mi SW 3.5 mph - N/A   Clear
10:05 PM 30.2 °F 25.4 °F 23.0 °F 75% 30.09 in 10.0 mi SW 4.6 mph - N/A   Clear
10:25 PM 30.2 °F 25.4 °F 23.0 °F 75% 30.09 in 10.0 mi WSW 4.6 mph - N/A   Clear
10:45 PM 30.2 °F 24.3 °F 23.0 °F 75% 30.10 in 10.0 mi WSW 5.8 mph - N/A   Clear
11:05 PM 30.2 °F 24.3 °F 23.0 °F 75% 30.10 in 10.0 mi WSW 5.8 mph - N/A   Clear
11:45 PM 30.2 °F 24.3 °F 23.0 °F 75% 30.09 in 10.0 mi WSW 5.8 mph - N/A   Clear